Location: Julian California
(33.0790°N, 116.6010°W)
Time: 06:08:48
(UTC-07:00)

OAO 1 - Pass Details

Date: 19 May 2017
Orbit: 773 x 784 km, 35.0° (Epoch: 28 May)

Event Time Altitude Azimuth Distance (km) Brightness Sun altitude
Rises 21:08:45 0° 282° (WNW) 3,258 8.9 -16.3°
Reaches altitude 10° 21:11:14 10° 283° (WNW) 2,328 8.0 -16.7°
Maximum altitude 21:16:46 88° 12° (NNE) 781 4.5 -17.6°
Enters shadow 21:19:43 29° 102° (ESE) 1,408 5.4 -18.1°
